| time (UTC) | temp F | wind direction | speed MPH | gust MPH | rain 1hr in | rain 24hr in | rain mn in | humidity % | barometer mb |
| 20260831024533 | 70 | 0 | 0.0 | 1.0 | 0.00 | 0.01 | 0.01 | 92 | 1019.0 |
| 20260831024018 | 70 | 0 | 0.0 | 1.0 | 0.00 | 0.01 | 0.01 | 92 | 1019.2 |
| 20260831023517 | 70 | 0 | 0.0 | 1.0 | 0.00 | 0.01 | 0.01 | 92 | 1019.1 |
| 20260831023037 | 70 | 0 | 0.0 | 1.0 | 0.00 | 0.01 | 0.01 | 92 | 1019.2 |
| 20260831022518 | 70 | 0 | 0.0 | 1.0 | 0.00 | 0.01 | 0.01 | 92 | 1019.2 |
| 20260831022017 | 70 | 0 | 0.0 | 1.0 | 0.00 | 0.01 | 0.01 | 92 | 1019.3 |
| 20260831021535 | 70 | 0 | 0.0 | 1.0 | 0.00 | 0.01 | 0.01 | 92 | 1019.3 |
| 20260831021019 | 70 | 0 | 0.0 | 1.0 | 0.00 | 0.01 | 0.01 | 92 | 1019.2 |
| 20260831020516 | 70 | 0 | 0.0 | 1.0 | 0.00 | 0.01 | 0.01 | 92 | 1019.2 |
| 20260831020042 | 70 | 0 | 0.0 | 1.0 | 0.00 | 0.01 | 0.01 | 92 | 1019.3 |
| 20260831015519 | 70 | 0 | 0.0 | 1.0 | 0.00 | 0.01 | 0.01 | 92 | 1019.3 |
| 20260831015017 | 71 | 0 | 0.0 | 1.0 | 0.00 | 0.01 | 0.01 | 92 | 1019.4 |
| 20260831014535 | 71 | 0 | 0.0 | 1.0 | 0.00 | 0.01 | 0.01 | 93 | 1019.3 |
| 20260831014017 | 71 | 0 | 0.0 | 2.0 | 0.00 | 0.01 | 0.01 | 93 | 1019.3 |
| 20260831013516 | 71 | 0 | 0.0 | 2.0 | 0.00 | 0.01 | 0.01 | 92 | 1019.2 |
| 20260831013041 | 71 | 0 | 0.0 | 1.0 | 0.00 | 0.01 | 0.01 | 93 | 1019.1 |
| 20260831012518 | 71 | 0 | 0.0 | 1.0 | 0.00 | 0.01 | 0.01 | 93 | 1019.1 |
| 20260831012015 | 71 | 0 | 0.0 | 1.0 | 0.00 | 0.01 | 0.01 | 94 | 1019.0 |
| 20260831011542 | 71 | 0 | 0.0 | 1.0 | 0.00 | 0.01 | 0.01 | 93 | 1018.9 |
| 20260831011018 | 71 | 0 | 0.0 | 1.0 | 0.00 | 0.01 | 0.01 | 94 | 1018.9 |
| 20260831010519 | 71 | 0 | 0.0 | 1.0 | 0.00 | 0.01 | 0.01 | 94 | 1018.9 |
| 20260831010036 | 71 | 0 | 0.0 | 1.0 | 0.00 | 0.01 | 0.01 | 94 | 1018.9 |
| 20260831005516 | 71 | 0 | 0.0 | 1.0 | 0.00 | 0.01 | 0.01 | 94 | 1018.8 |
| 20260831005016 | 71 | 0 | 0.0 | 1.0 | 0.00 | 0.01 | 0.01 | 94 | 1018.8 |
| 20260831004534 | 71 | 0 | 0.0 | 1.0 | 0.00 | 0.01 | 0.01 | 94 | 1018.8 |
| 20260831004018 | 71 | 0 | 0.0 | 1.0 | 0.01 | 0.01 | 0.01 | 94 | 1018.7 |
| 20260831003519 | 71 | 0 | 0.0 | 1.0 | 0.01 | 0.01 | 0.01 | 94 | 1018.6 |
| 20260831003038 | 71 | 0 | 0.0 | 0.0 | 0.01 | 0.01 | 0.01 | 93 | 1018.6 |
| 20260831002518 | 71 | 0 | 0.0 | 0.0 | 0.01 | 0.01 | 0.01 | 93 | 1018.5 |
| 20260831002017 | 71 | 0 | 0.0 | 0.0 | 0.01 | 0.01 | 0.01 | 93 | 1018.4 |
| 20260831001537 | 72 | 0 | 0.0 | 0.0 | 0.01 | 0.01 | 0.01 | 92 | 1018.2 |
| 20260831001023 | 72 | 0 | 0.0 | 0.0 | 0.01 | 0.01 | 0.01 | 92 | 1018.1 |
| 20260831000518 | 72 | 0 | 0.0 | 0.0 | 0.01 | 0.01 | 0.01 | 92 | 1018.1 |
| 20260831000040 | 72 | 0 | 0.0 | 0.0 | 0.01 | 0.01 | 0.01 | 91 | 1018.1 |
| 20260830235518 | 72 | 0 | 0.0 | 0.0 | 0.01 | 0.01 | 0.01 | 91 | 1018.0 |
| 20260830235020 | 72 | 0 | 0.0 | 2.0 | 0.01 | 0.01 | 0.01 | 91 | 1018.0 |
| 20260830234539 | 73 | 0 | 0.0 | 2.0 | 0.00 | 0.00 | 0.00 | 90 | 1018.0 |
| 20260830234018 | 73 | 0 | 0.0 | 1.0 | 0.00 | 0.00 | 0.00 | 89 | 1018.0 |
| 20260830233517 | 73 | 0 | 0.0 | 1.0 | 0.00 | 0.00 | 0.00 | 89 | 1018.0 |
| 20260830233044 | 73 | 0 | 0.0 | 1.0 | 0.00 | 0.00 | 0.00 | 89 | 1018.0 |
| 20260830232515 | 73 | 0 | 0.0 | 1.0 | 0.00 | 0.00 | 0.00 | 88 | 1017.8 |
| 20260830232020 | 73 | 0 | 0.0 | 1.0 | 0.00 | 0.00 | 0.00 | 88 | 1017.7 |
| 20260830231540 | 73 | 0 | 0.0 | 1.0 | 0.00 | 0.00 | 0.00 | 87 | 1017.6 |
| 20260830231018 | 73 | 0 | 0.0 | 0.0 | 0.00 | 0.00 | 0.00 | 87 | 1017.7 |
| 20260830230520 | 73 | 0 | 0.0 | 2.0 | 0.00 | 0.00 | 0.00 | 87 | 1017.6 |
| 20260830230036 | 73 | 0 | 0.0 | 2.0 | 0.00 | 0.00 | 0.00 | 87 | 1017.7 |
| 20260830225518 | 74 | 0 | 0.0 | 2.0 | 0.00 | 0.00 | 0.00 | 87 | 1017.7 |
| 20260830225018 | 74 | 0 | 0.0 | 1.0 | 0.00 | 0.00 | 0.00 | 86 | 1017.7 |
| 20260830224534 | 74 | 0 | 0.0 | 1.0 | 0.00 | 0.00 | 0.00 | 86 | 1017.7 |
| 20260830224019 | 74 | 0 | 0.0 | 1.0 | 0.00 | 0.00 | 0.00 | 86 | 1017.7 |
| 20260830223521 | 74 | 0 | 0.0 | 2.0 | 0.00 | 0.00 | 0.00 | 85 | 1017.7 |
| 20260830223036 | 74 | 0 | 0.0 | 2.0 | 0.00 | 0.00 | 0.00 | 85 | 1017.8 |
| 20260830222518 | 74 | 0 | 0.0 | 2.0 | 0.00 | 0.00 | 0.00 | 85 | 1017.7 |
| 20260830222021 | 74 | 0 | 0.0 | 1.0 | 0.00 | 0.00 | 0.00 | 85 | 1017.8 |
| 20260830221541 | 74 | 0 | 0.0 | 2.0 | 0.00 | 0.00 | 0.00 | 85 | 1017.9 |
| 20260830221017 | 74 | 0 | 0.0 | 2.0 | 0.00 | 0.00 | 0.00 | 85 | 1017.7 |
| 20260830220518 | 75 | 0 | 0.0 | 1.0 | 0.00 | 0.00 | 0.00 | 85 | 1017.7 |
| 20260830220039 | 75 | 0 | 0.0 | 1.0 | 0.00 | 0.00 | 0.00 | 84 | 1017.7 |
| 20260830215516 | 75 | 0 | 0.0 | 3.0 | 0.00 | 0.00 | 0.00 | 84 | 1017.7 |
| 20260830215016 | 75 | 0 | 0.0 | 4.0 | 0.00 | 0.00 | 0.00 | 84 | 1017.7 |
| 20260830214537 | 75 | 0 | 0.0 | 4.0 | 0.00 | 0.00 | 0.00 | 84 | 1017.8 |
| 20260830214018 | 75 | 0 | 0.0 | 3.0 | 0.00 | 0.00 | 0.00 | 84 | 1017.7 |
| 20260830213518 | 75 | 0 | 0.0 | 3.0 | 0.00 | 0.00 | 0.00 | 84 | 1017.6 |
| 20260830213038 | 75 | 325 | 0.0 | 2.0 | 0.00 | 0.00 | 0.00 | 84 | 1017.9 |
| 20260830212516 | 75 | 0 | 0.0 | 4.0 | 0.00 | 0.00 | 0.00 | 84 | 1017.8 |
| 20260830212016 | 75 | 0 | 0.0 | 4.0 | 0.00 | 0.00 | 0.00 | 84 | 1017.7 |
| 20260830211535 | 75 | 0 | 0.0 | 3.0 | 0.00 | 0.00 | 0.00 | 84 | 1017.6 |
| 20260830211024 | 75 | 178 | 0.0 | 3.0 | 0.00 | 0.00 | 0.00 | 83 | 1017.6 |
| 20260830210516 | 75 | 0 | 0.0 | 4.0 | 0.00 | 0.00 | 0.00 | 83 | 1017.6 |
| 20260830210039 | 75 | 0 | 0.0 | 4.0 | 0.00 | 0.00 | 0.00 | 83 | 1017.7 |
| 20260830205517 | 75 | 189 | 0.0 | 4.0 | 0.00 | 0.00 | 0.00 | 83 | 1017.7 |
| 20260830205018 | 75 | 250 | 0.0 | 3.0 | 0.00 | 0.00 | 0.00 | 83 | 1017.9 |
| 20260830204533 | 75 | 248 | 0.0 | 4.0 | 0.00 | 0.00 | 0.00 | 82 | 1017.9 |
| 20260830204018 | 75 | 210 | 0.0 | 4.0 | 0.00 | 0.00 | 0.00 | 83 | 1017.9 |
| 20260830203516 | 76 | 44 | 0.0 | 6.0 | 0.00 | 0.00 | 0.00 | 82 | 1017.9 |
| 20260830203040 | 76 | 0 | 0.0 | 6.0 | 0.00 | 0.00 | 0.00 | 82 | 1017.9 |
| 20260830202516 | 76 | 162 | 1.0 | 6.0 | 0.00 | 0.00 | 0.00 | 82 | 1017.9 |
| 20260830202016 | 76 | 0 | 1.0 | 4.0 | 0.00 | 0.00 | 0.00 | 82 | 1017.9 |
| 20260830201536 | 76 | 96 | 0.0 | 5.0 | 0.00 | 0.00 | 0.00 | 84 | 1017.9 |
| 20260830201017 | 76 | 292 | 0.0 | 5.0 | 0.00 | 0.00 | 0.00 | 82 | 1018.0 |
| 20260830200515 | 75 | 277 | 0.0 | 4.0 | 0.00 | 0.00 | 0.00 | 84 | 1018.1 |
| 20260830200035 | 75 | 0 | 0.0 | 6.0 | 0.00 | 0.00 | 0.00 | 84 | 1018.1 |
| 20260830195519 | 74 | 0 | 0.0 | 6.0 | 0.00 | 0.00 | 0.00 | 85 | 1018.0 |
| 20260830195019 | 74 | 0 | 1.0 | 6.0 | 0.00 | 0.00 | 0.00 | 84 | 1017.9 |
| 20260830194537 | 74 | 312 | 2.0 | 5.0 | 0.00 | 0.00 | 0.00 | 84 | 1018.0 |
| 20260830194018 | 74 | 0 | 0.0 | 5.0 | 0.00 | 0.00 | 0.00 | 84 | 1018.0 |
| 20260830193515 | 74 | 0 | 1.0 | 6.0 | 0.00 | 0.00 | 0.00 | 83 | 1018.1 |
| 20260830193034 | 74 | 168 | 1.0 | 6.0 | 0.00 | 0.00 | 0.00 | 83 | 1018.4 |
| 20260830192516 | 75 | 0 | 1.0 | 6.0 | 0.00 | 0.00 | 0.00 | 82 | 1018.4 |
| 20260830192019 | 75 | 0 | 0.0 | 6.0 | 0.00 | 0.00 | 0.00 | 82 | 1018.5 |
| 20260830191539 | 75 | 185 | 1.0 | 6.0 | 0.00 | 0.00 | 0.00 | 81 | 1018.4 |
| 20260830191017 | 75 | 171 | 0.0 | 5.0 | 0.00 | 0.00 | 0.00 | 82 | 1018.5 |
| 20260830190515 | 75 | 0 | 0.0 | 9.0 | 0.00 | 0.00 | 0.00 | 81 | 1018.5 |
| 20260830190039 | 76 | 186 | 0.0 | 9.0 | 0.00 | 0.00 | 0.00 | 80 | 1018.6 |
| 20260830185520 | 76 | 0 | 1.0 | 8.0 | 0.00 | 0.00 | 0.00 | 80 | 1018.7 |
| 20260830185020 | 76 | 161 | 1.0 | 8.0 | 0.00 | 0.00 | 0.00 | 79 | 1019.0 |
| 20260830184535 | 76 | 178 | 2.0 | 8.0 | 0.00 | 0.00 | 0.00 | 80 | 1019.1 |
| 20260830184019 | 76 | 194 | 1.0 | 8.0 | 0.00 | 0.00 | 0.00 | 81 | 1019.1 |
| 20260830183516 | 76 | 0 | 1.0 | 8.0 | 0.00 | 0.00 | 0.00 | 80 | 1019.1 |
| 20260830183041 | 76 | 196 | 2.0 | 8.0 | 0.00 | 0.00 | 0.00 | 80 | 1019.0 |
| 20260830182518 | 76 | 171 | 0.0 | 8.0 | 0.00 | 0.00 | 0.00 | 79 | 1019.1 |
| 20260830182016 | 76 | 226 | 0.0 | 9.0 | 0.00 | 0.00 | 0.00 | 81 | 1019.3 |
| 20260830181534 | 76 | 0 | 2.0 | 9.0 | 0.00 | 0.00 | 0.00 | 81 | 1019.3 |
| 20260830181021 | 76 | 306 | 2.0 | 9.0 | 0.00 | 0.00 | 0.00 | 79 | 1019.4 |
| 20260830180523 | 76 | 0 | 2.0 | 8.0 | 0.00 | 0.00 | 0.00 | 80 | 1019.4 |
| 20260830180035 | 76 | 298 | 1.0 | 10.0 | 0.00 | 0.00 | 0.00 | 79 | 1019.4 |
| 20260830175519 | 76 | 0 | 1.0 | 10.0 | 0.00 | 0.00 | 0.00 | 79 | 1019.5 |
| 20260830175017 | 76 | 348 | 2.0 | 10.0 | 0.00 | 0.00 | 0.00 | 79 | 1019.4 |
| 20260830174538 | 76 | 145 | 1.0 | 7.0 | 0.00 | 0.00 | 0.00 | 80 | 1019.4 |
| 20260830174016 | 76 | 188 | 2.0 | 7.0 | 0.00 | 0.00 | 0.00 | 79 | 1019.6 |
| 20260830173518 | 76 | 360 | 1.0 | 6.0 | 0.00 | 0.00 | 0.00 | 79 | 1019.6 |
| 20260830173035 | 76 | 336 | 2.0 | 6.0 | 0.00 | 0.00 | 0.00 | 78 | 1019.5 |
| 20260830172515 | 75 | 0 | 1.0 | 6.0 | 0.00 | 0.00 | 0.00 | 79 | 1019.6 |
| 20260830172017 | 75 | 175 | 1.0 | 6.0 | 0.00 | 0.00 | 0.00 | 80 | 1019.6 |
| 20260830171534 | 75 | 0 | 1.0 | 6.0 | 0.00 | 0.00 | 0.00 | 79 | 1019.6 |
| 20260830171018 | 75 | 0 | 1.0 | 7.0 | 0.00 | 0.00 | 0.00 | 78 | 1019.8 |
| 20260830170518 | 75 | 0 | 1.0 | 8.0 | 0.00 | 0.00 | 0.00 | 78 | 1020.0 |
| 20260830170043 | 75 | 0 | 2.0 | 8.0 | 0.00 | 0.00 | 0.00 | 77 | 1020.0 |
| 20260830165518 | 75 | 0 | 1.0 | 9.0 | 0.00 | 0.00 | 0.00 | 78 | 1020.1 |
| 20260830165020 | 75 | 292 | 1.0 | 9.0 | 0.00 | 0.00 | 0.00 | 77 | 1020.0 |
| 20260830164538 | 75 | 261 | 2.0 | 9.0 | 0.00 | 0.00 | 0.00 | 76 | 1020.2 |
| 20260830164020 | 75 | 0 | 0.0 | 4.0 | 0.00 | 0.00 | 0.00 | 74 | 1020.2 |
| 20260830163517 | 75 | 267 | 1.0 | 4.0 | 0.00 | 0.00 | 0.00 | 73 | 1020.1 |
| 20260830163036 | 76 | 0 | 1.0 | 4.0 | 0.00 | 0.00 | 0.00 | 73 | 1020.1 |
| 20260830162518 | 75 | 0 | 0.0 | 5.0 | 0.00 | 0.00 | 0.00 | 73 | 1020.1 |
| 20260830162019 | 76 | 0 | 0.0 | 6.0 | 0.00 | 0.00 | 0.00 | 71 | 1020.2 |
| 20260830161535 | 76 | 0 | 0.0 | 6.0 | 0.00 | 0.00 | 0.00 | 70 | 1020.1 |
| 20260830161018 | 76 | 271 | 0.0 | 4.0 | 0.00 | 0.00 | 0.00 | 69 | 1020.1 |
| 20260830160518 | 76 | 0 | 0.0 | 4.0 | 0.00 | 0.00 | 0.00 | 69 | 1020.2 |
| 20260830160035 | 76 | 305 | 0.0 | 5.0 | 0.00 | 0.00 | 0.00 | 71 | 1020.2 |
| 20260830155518 | 76 | 0 | 0.0 | 5.0 | 0.00 | 0.00 | 0.00 | 70 | 1020.2 |
| 20260830155018 | 75 | 0 | 0.0 | 5.0 | 0.00 | 0.00 | 0.00 | 72 | 1020.3 |
| 20260830154536 | 75 | 294 | 0.0 | 4.0 | 0.00 | 0.00 | 0.00 | 72 | 1020.6 |
| 20260830154019 | 75 | 314 | 1.0 | 6.0 | 0.00 | 0.00 | 0.00 | 69 | 1020.7 |
| 20260830153519 | 75 | 0 | 1.0 | 7.0 | 0.00 | 0.00 | 0.00 | 70 | 1020.8 |
| 20260830153041 | 75 | 325 | 0.0 | 7.0 | 0.00 | 0.00 | 0.00 | 68 | 1020.9 |
| 20260830152516 | 76 | 289 | 1.0 | 6.0 | 0.00 | 0.00 | 0.00 | 69 | 1020.9 |
| 20260830152019 | 76 | 0 | 0.0 | 6.0 | 0.00 | 0.00 | 0.00 | 68 | 1020.9 |
| 20260830151534 | 76 | 342 | 1.0 | 6.0 | 0.00 | 0.00 | 0.00 | 67 | 1020.8 |
| 20260830151018 | 75 | 0 | 0.0 | 3.0 | 0.00 | 0.00 | 0.00 | 67 | 1020.8 |
| 20260830150519 | 75 | 0 | 0.0 | 3.0 | 0.00 | 0.00 | 0.00 | 67 | 1020.8 |
| 20260830150035 | 75 | 180 | 0.0 | 3.0 | 0.00 | 0.00 | 0.00 | 66 | 1020.8 |
| 20260830145519 | 75 | 0 | 0.0 | 3.0 | 0.00 | 0.00 | 0.00 | 65 | 1020.9 |
| 20260830145020 | 75 | 184 | 0.0 | 4.0 | 0.00 | 0.00 | 0.00 | 64 | 1021.0 |
| 20260830144548 | 74 | 0 | 0.0 | 5.0 | 0.00 | 0.00 | 0.00 | 65 | 1021.0 |
| 20260830144017 | 74 | 0 | 0.0 | 5.0 | 0.00 | 0.00 | 0.00 | 66 | 1021.0 |
| 20260830143519 | 74 | 200 | 1.0 | 5.0 | 0.00 | 0.00 | 0.00 | 64 | 1021.0 |
| 20260830143038 | 74 | 0 | 1.0 | 5.0 | 0.00 | 0.00 | 0.00 | 64 | 1021.1 |
| 20260830142517 | 74 | 0 | 0.0 | 7.0 | 0.00 | 0.00 | 0.00 | 66 | 1021.2 |
| 20260830142022 | 74 | 335 | 1.0 | 7.0 | 0.00 | 0.00 | 0.00 | 65 | 1021.3 |
| 20260830141534 | 74 | 214 | 0.0 | 4.0 | 0.00 | 0.00 | 0.00 | 67 | 1021.4 |
| 20260830141017 | 74 | 0 | 0.0 | 6.0 | 0.00 | 0.00 | 0.00 | 69 | 1021.3 |
| 20260830140517 | 73 | 165 | 1.0 | 6.0 | 0.00 | 0.00 | 0.00 | 68 | 1021.4 |
| 20260830140036 | 73 | 0 | 0.0 | 3.0 | 0.00 | 0.00 | 0.00 | 68 | 1021.3 |
| 20260830135521 | 73 | 0 | 0.0 | 3.0 | 0.00 | 0.00 | 0.00 | 69 | 1021.3 |
| 20260830135018 | 72 | 205 | 0.0 | 2.0 | 0.00 | 0.00 | 0.00 | 71 | 1021.2 |
| 20260830134534 | 72 | 0 | 0.0 | 3.0 | 0.00 | 0.00 | 0.00 | 70 | 1021.3 |
| 20260830134018 | 71 | 253 | 0.0 | 3.0 | 0.00 | 0.00 | 0.00 | 71 | 1021.3 |
| 20260830133518 | 71 | 259 | 0.0 | 3.0 | 0.00 | 0.00 | 0.00 | 72 | 1021.2 |
| 20260830133036 | 71 | 0 | 0.0 | 4.0 | 0.00 | 0.00 | 0.00 | 73 | 1021.1 |
| 20260830132515 | 70 | 0 | 0.0 | 4.0 | 0.00 | 0.00 | 0.00 | 75 | 1021.2 |
| 20260830132015 | 69 | 0 | 0.0 | 2.0 | 0.00 | 0.00 | 0.00 | 78 | 1021.3 |
| 20260830131534 | 68 | 205 | 0.0 | 2.0 | 0.00 | 0.00 | 0.00 | 79 | 1021.3 |
| 20260830131017 | 67 | 215 | 0.0 | 2.0 | 0.00 | 0.00 | 0.00 | 83 | 1021.5 |
| 20260830130520 | 65 | 0 | 0.0 | 2.0 | 0.00 | 0.00 | 0.00 | 87 | 1021.5 |
| 20260830130036 | 64 | 0 | 0.0 | 2.0 | 0.00 | 0.00 | 0.00 | 91 | 1021.5 |
| 20260830125518 | 62 | 0 | 0.0 | 1.0 | 0.00 | 0.00 | 0.00 | 95 | 1021.6 |
| 20260830125021 | 61 | 0 | 0.0 | 1.0 | 0.00 | 0.00 | 0.00 | 97 | 1021.6 |
| 20260830124539 | 60 | 0 | 0.0 | 1.0 | 0.00 | 0.00 | 0.00 | 98 | 1021.8 |
| 20260830124020 | 60 | 0 | 0.0 | 1.0 | 0.00 | 0.00 | 0.00 | 98 | 1021.8 |
| 20260830123520 | 59 | 0 | 0.0 | 0.0 | 0.00 | 0.00 | 0.00 | 98 | 1021.9 |
| 20260830123034 | 59 | 0 | 0.0 | 0.0 | 0.00 | 0.00 | 0.00 | 98 | 1021.8 |
| 20260830122516 | 59 | 0 | 0.0 | 0.0 | 0.00 | 0.00 | 0.00 | 98 | 1021.8 |
| 20260830122016 | 58 | 0 | 0.0 | 0.0 | 0.00 | 0.00 | 0.00 | 98 | 1021.9 |
| 20260830121535 | 58 | 0 | 0.0 | 0.0 | 0.00 | 0.00 | 0.00 | 98 | 1022.0 |
| 20260830121022 | 58 | 0 | 0.0 | 0.0 | 0.00 | 0.00 | 0.00 | 98 | 1022.0 |
| 20260830120517 | 57 | 0 | 0.0 | 0.0 | 0.00 | 0.00 | 0.00 | 98 | 1022.0 |
| 20260830120039 | 57 | 0 | 0.0 | 0.0 | 0.00 | 0.00 | 0.00 | 97 | 1022.1 |
| 20260830115518 | 57 | 0 | 0.0 | 0.0 | 0.00 | 0.00 | 0.00 | 97 | 1022.1 |
| 20260830115018 | 57 | 0 | 0.0 | 0.0 | 0.00 | 0.00 | 0.00 | 97 | 1022.2 |
| 20260830114533 | 56 | 0 | 0.0 | 0.0 | 0.00 | 0.00 | 0.00 | 97 | 1022.2 |
| 20260830114017 | 56 | 0 | 0.0 | 0.0 | 0.00 | 0.00 | 0.00 | 97 | 1022.3 |
| 20260830113517 | 56 | 0 | 0.0 | 0.0 | 0.00 | 0.00 | 0.00 | 97 | 1022.3 |
| 20260830113032 | 56 | 0 | 0.0 | 0.0 | 0.00 | 0.00 | 0.00 | 97 | 1022.4 |
| 20260830112515 | 56 | 0 | 0.0 | 0.0 | 0.00 | 0.00 | 0.00 | 97 | 1022.5 |
| 20260830112017 | 56 | 0 | 0.0 | 0.0 | 0.00 | 0.00 | 0.00 | 97 | 1022.4 |
| 20260830111533 | 56 | 0 | 0.0 | 0.0 | 0.00 | 0.00 | 0.00 | 97 | 1022.4 |
| 20260830111017 | 56 | 0 | 0.0 | 0.0 | 0.00 | 0.00 | 0.00 | 96 | 1022.4 |
| 20260830110517 | 56 | 0 | 0.0 | 0.0 | 0.00 | 0.00 | 0.00 | 96 | 1022.3 |
| 20260830110039 | 56 | 0 | 0.0 | 0.0 | 0.00 | 0.00 | 0.00 | 96 | 1022.2 |
| 20260830105520 | 56 | 0 | 0.0 | 0.0 | 0.00 | 0.00 | 0.00 | 97 | 1022.2 |
| 20260830105017 | 56 | 0 | 0.0 | 0.0 | 0.00 | 0.00 | 0.00 | 97 | 1022.2 |
| 20260830104534 | 56 | 0 | 0.0 | 0.0 | 0.00 | 0.00 | 0.00 | 97 | 1022.0 |
| 20260830104020 | 56 | 0 | 0.0 | 0.0 | 0.00 | 0.00 | 0.00 | 97 | 1022.1 |
| 20260830103522 | 56 | 0 | 0.0 | 0.0 | 0.00 | 0.00 | 0.00 | 97 | 1022.0 |
| 20260830103037 | 56 | 0 | 0.0 | 0.0 | 0.00 | 0.00 | 0.00 | 97 | 1022.1 |
| 20260830102522 | 56 | 0 | 0.0 | 0.0 | 0.00 | 0.00 | 0.00 | 97 | 1022.0 |
| 20260830102022 | 56 | 0 | 0.0 | 0.0 | 0.00 | 0.00 | 0.00 | 97 | 1021.9 |
| 20260830101536 | 56 | 0 | 0.0 | 0.0 | 0.00 | 0.00 | 0.00 | 96 | 1022.0 |
| 20260830101017 | 56 | 0 | 0.0 | 0.0 | 0.00 | 0.00 | 0.00 | 96 | 1021.9 |
| 20260830100520 | 56 | 0 | 0.0 | 0.0 | 0.00 | 0.00 | 0.00 | 96 | 1021.9 |
| 20260830100037 | 56 | 0 | 0.0 | 0.0 | 0.00 | 0.00 | 0.00 | 97 | 1021.7 |
| 20260830095517 | 56 | 0 | 0.0 | 0.0 | 0.00 | 0.00 | 0.00 | 97 | 1021.8 |
| 20260830095016 | 56 | 0 | 0.0 | 0.0 | 0.00 | 0.00 | 0.00 | 97 | 1021.9 |
| 20260830094535 | 56 | 0 | 0.0 | 0.0 | 0.00 | 0.00 | 0.00 | 97 | 1021.9 |
| 20260830094017 | 56 | 0 | 0.0 | 0.0 | 0.00 | 0.00 | 0.00 | 97 | 1021.8 |
| 20260830093517 | 56 | 0 | 0.0 | 0.0 | 0.00 | 0.00 | 0.00 | 96 | 1021.9 |
| 20260830093041 | 56 | 0 | 0.0 | 0.0 | 0.00 | 0.00 | 0.00 | 97 | 1022.1 |
| 20260830092517 | 56 | 0 | 0.0 | 0.0 | 0.00 | 0.00 | 0.00 | 96 | 1022.2 |
| 20260830092017 | 56 | 0 | 0.0 | 0.0 | 0.00 | 0.00 | 0.00 | 97 | 1022.1 |
| 20260830091537 | 56 | 0 | 0.0 | 0.0 | 0.00 | 0.00 | 0.00 | 97 | 1022.1 |
| 20260830091018 | 56 | 0 | 0.0 | 0.0 | 0.00 | 0.00 | 0.00 | 97 | 1022.2 |
| 20260830090517 | 56 | 0 | 0.0 | 0.0 | 0.00 | 0.00 | 0.00 | 97 | 1022.2 |
| 20260830090036 | 56 | 0 | 0.0 | 0.0 | 0.00 | 0.00 | 0.00 | 97 | 1022.2 |
| 20260830085516 | 56 | 0 | 0.0 | 0.0 | 0.00 | 0.00 | 0.00 | 97 | 1022.1 |
| 20260830085019 | 56 | 0 | 0.0 | 0.0 | 0.00 | 0.00 | 0.00 | 97 | 1022.1 |
| 20260830084535 | 56 | 0 | 0.0 | 0.0 | 0.00 | 0.00 | 0.00 | 97 | 1022.1 |
| 20260830084017 | 56 | 0 | 0.0 | 0.0 | 0.00 | 0.00 | 0.00 | 97 | 1022.2 |
| 20260830083518 | 56 | 0 | 0.0 | 0.0 | 0.00 | 0.00 | 0.00 | 97 | 1022.3 |
| 20260830083036 | 56 | 0 | 0.0 | 0.0 | 0.00 | 0.00 | 0.00 | 97 | 1022.3 |
| 20260830082519 | 56 | 0 | 0.0 | 0.0 | 0.00 | 0.00 | 0.00 | 97 | 1022.2 |
| 20260830082016 | 56 | 0 | 0.0 | 0.0 | 0.00 | 0.00 | 0.00 | 97 | 1022.2 |
| 20260830081536 | 55 | 0 | 0.0 | 0.0 | 0.00 | 0.00 | 0.00 | 97 | 1022.2 |
| 20260830081019 | 55 | 0 | 0.0 | 0.0 | 0.00 | 0.00 | 0.00 | 97 | 1022.3 |
| 20260830080518 | 55 | 0 | 0.0 | 0.0 | 0.00 | 0.00 | 0.00 | 96 | 1022.4 |
| 20260830080035 | 55 | 0 | 0.0 | 0.0 | 0.00 | 0.00 | 0.00 | 96 | 1022.4 |
| 20260830075517 | 55 | 0 | 0.0 | 0.0 | 0.00 | 0.00 | 0.00 | 96 | 1022.5 |
| 20260830075015 | 55 | 0 | 0.0 | 0.0 | 0.00 | 0.00 | 0.00 | 96 | 1022.4 |
| 20260830074536 | 55 | 0 | 0.0 | 0.0 | 0.00 | 0.00 | 0.00 | 96 | 1022.4 |
| 20260830074019 | 55 | 0 | 0.0 | 0.0 | 0.00 | 0.00 | 0.00 | 96 | 1022.4 |
| 20260830073517 | 55 | 0 | 0.0 | 0.0 | 0.00 | 0.00 | 0.00 | 96 | 1022.4 |
| 20260830073041 | 55 | 0 | 0.0 | 0.0 | 0.00 | 0.00 | 0.00 | 96 | 1022.3 |
| 20260830072516 | 55 | 0 | 0.0 | 0.0 | 0.00 | 0.00 | 0.00 | 96 | 1022.2 |
| 20260830072016 | 55 | 0 | 0.0 | 0.0 | 0.00 | 0.00 | 0.00 | 96 | 1022.3 |
| 20260830071536 | 55 | 0 | 0.0 | 0.0 | 0.00 | 0.00 | 0.00 | 96 | 1022.2 |
| 20260830071021 | 55 | 0 | 0.0 | 0.0 | 0.00 | 0.00 | 0.00 | 96 | 1022.2 |
| 20260830070517 | 55 | 0 | 0.0 | 0.0 | 0.00 | 0.00 | 0.00 | 96 | 1022.3 |
| 20260830070035 | 55 | 0 | 0.0 | 0.0 | 0.00 | 0.00 | 0.00 | 96 | 1022.2 |
| 20260830065517 | 55 | 0 | 0.0 | 0.0 | 0.00 | 0.00 | 0.00 | 96 | 1022.1 |
| 20260830065016 | 55 | 0 | 0.0 | 0.0 | 0.00 | 0.00 | 0.00 | 96 | 1022.2 |
| 20260830064533 | 55 | 0 | 0.0 | 0.0 | 0.00 | 0.00 | 0.00 | 96 | 1022.2 |
| 20260830064018 | 55 | 0 | 0.0 | 0.0 | 0.00 | 0.00 | 0.00 | 96 | 1022.4 |
| 20260830063521 | 55 | 0 | 0.0 | 0.0 | 0.00 | 0.00 | 0.00 | 96 | 1022.3 |
| 20260830063038 | 55 | 0 | 0.0 | 0.0 | 0.00 | 0.00 | 0.00 | 96 | 1022.2 |
| 20260830062518 | 54 | 0 | 0.0 | 0.0 | 0.00 | 0.00 | 0.00 | 96 | 1022.3 |
| 20260830062018 | 54 | 0 | 0.0 | 0.0 | 0.00 | 0.00 | 0.00 | 95 | 1022.3 |
| 20260830061534 | 54 | 0 | 0.0 | 0.0 | 0.00 | 0.00 | 0.00 | 95 | 1022.4 |
| 20260830061015 | 54 | 0 | 0.0 | 0.0 | 0.00 | 0.00 | 0.00 | 96 | 1022.4 |
| 20260830060516 | 54 | 0 | 0.0 | 0.0 | 0.00 | 0.00 | 0.00 | 95 | 1022.5 |
| 20260830060036 | 54 | 0 | 0.0 | 0.0 | 0.00 | 0.00 | 0.00 | 95 | 1022.5 |
| 20260830055524 | 54 | 0 | 0.0 | 0.0 | 0.00 | 0.00 | 0.00 | 95 | 1022.6 |
| 20260830055017 | 54 | 0 | 0.0 | 0.0 | 0.00 | 0.00 | 0.00 | 95 | 1022.4 |
| 20260830054537 | 54 | 0 | 0.0 | 0.0 | 0.00 | 0.00 | 0.00 | 95 | 1022.3 |
| 20260830054020 | 55 | 0 | 0.0 | 0.0 | 0.00 | 0.00 | 0.00 | 95 | 1022.3 |
| 20260830053520 | 55 | 0 | 0.0 | 0.0 | 0.00 | 0.00 | 0.00 | 95 | 1022.3 |
| 20260830053037 | 55 | 0 | 0.0 | 0.0 | 0.00 | 0.00 | 0.00 | 95 | 1022.3 |
| 20260830052516 | 55 | 0 | 0.0 | 0.0 | 0.00 | 0.00 | 0.00 | 95 | 1022.3 |
| 20260830052019 | 55 | 0 | 0.0 | 0.0 | 0.00 | 0.00 | 0.00 | 95 | 1022.4 |
| 20260830051534 | 55 | 0 | 0.0 | 0.0 | 0.00 | 0.00 | 0.00 | 95 | 1022.3 |
| 20260830051018 | 55 | 0 | 0.0 | 0.0 | 0.00 | 0.00 | 0.00 | 94 | 1022.2 |
| 20260830050521 | 55 | 0 | 0.0 | 0.0 | 0.00 | 0.00 | 0.00 | 94 | 1022.2 |
| 20260830050040 | 55 | 0 | 0.0 | 0.0 | 0.00 | 0.00 | 0.00 | 95 | 1022.2 |
| 20260830045518 | 55 | 0 | 0.0 | 0.0 | 0.00 | 0.00 | 0.00 | 95 | 1022.2 |
| 20260830045018 | 55 | 0 | 0.0 | 0.0 | 0.00 | 0.00 | 0.00 | 95 | 1022.2 |
| 20260830044535 | 55 | 0 | 0.0 | 0.0 | 0.00 | 0.00 | 0.00 | 95 | 1022.2 |
| 20260830044015 | 55 | 0 | 0.0 | 0.0 | 0.00 | 0.00 | 0.00 | 95 | 1022.4 |
| 20260830043519 | 55 | 0 | 0.0 | 0.0 | 0.00 | 0.00 | 0.00 | 95 | 1022.3 |
| 20260830043036 | 55 | 0 | 0.0 | 0.0 | 0.00 | 0.00 | 0.00 | 94 | 1022.5 |
| 20260830042516 | 55 | 0 | 0.0 | 0.0 | 0.00 | 0.00 | 0.00 | 94 | 1022.5 |
| 20260830042019 | 55 | 0 | 0.0 | 0.0 | 0.00 | 0.00 | 0.00 | 94 | 1022.4 |
| 20260830041534 | 55 | 0 | 0.0 | 0.0 | 0.00 | 0.00 | 0.00 | 94 | 1022.4 |
| 20260830041017 | 56 | 0 | 0.0 | 0.0 | 0.00 | 0.00 | 0.00 | 93 | 1022.3 |
| 20260830040519 | 56 | 0 | 0.0 | 0.0 | 0.00 | 0.00 | 0.00 | 93 | 1022.4 |
| 20260830040037 | 56 | 0 | 0.0 | 0.0 | 0.00 | 0.00 | 0.00 | 94 | 1022.2 |
| 20260830035518 | 56 | 0 | 0.0 | 0.0 | 0.00 | 0.00 | 0.00 | 94 | 1022.2 |
| 20260830035019 | 56 | 0 | 0.0 | 0.0 | 0.00 | 0.00 | 0.00 | 94 | 1022.1 |
| 20260830034536 | 56 | 0 | 0.0 | 0.0 | 0.00 | 0.00 | 0.00 | 94 | 1022.1 |
| 20260830034022 | 56 | 0 | 0.0 | 0.0 | 0.00 | 0.00 | 0.00 | 94 | 1022.2 |
| 20260830033521 | 56 | 0 | 0.0 | 0.0 | 0.00 | 0.00 | 0.00 | 94 | 1022.1 |
| 20260830033036 | 56 | 0 | 0.0 | 0.0 | 0.00 | 0.00 | 0.00 | 94 | 1022.3 |
| 20260830032516 | 56 | 0 | 0.0 | 0.0 | 0.00 | 0.00 | 0.00 | 94 | 1022.2 |
| 20260830032015 | 56 | 0 | 0.0 | 0.0 | 0.00 | 0.00 | 0.00 | 93 | 1022.2 |
| 20260830031538 | 56 | 0 | 0.0 | 0.0 | 0.00 | 0.00 | 0.00 | 93 | 1022.2 |
| 20260830031020 | 57 | 0 | 0.0 | 0.0 | 0.00 | 0.00 | 0.00 | 93 | 1022.2 |
| 20260830030517 | 57 | 0 | 0.0 | 0.0 | 0.00 | 0.00 | 0.00 | 93 | 1022.2 |
| 20260830030038 | 57 | 0 | 0.0 | 0.0 | 0.00 | 0.00 | 0.00 | 93 | 1022.3 |
| 20260830025517 | 57 | 0 | 0.0 | 0.0 | 0.00 | 0.00 | 0.00 | 93 | 1022.4 |
| 20260830025017 | 57 | 0 | 0.0 | 0.0 | 0.00 | 0.00 | 0.00 | 93 | 1022.3 |